Location: De Kwakel
(52.2389°N, 4.7970°E)
Time: 08:37:32
(UTC+00:00)

Daily predictions for brighter satellites

Satellite Brightness Start Highest point End
(mag) Time Altitude Azimuth Time Altitude Azimuth Time Altitude Azimuth
Cosmos 2074 Rocket 4.0 18:51:10 10° N 18:57:29 74° ENE 19:03:46 10° SSE
STARLINK-1238 2.9 18:56:58 10° WNW 19:00:08 88° S 19:03:17 10° ESE
ATLAS 5 CENTAUR R/B 2.9 18:57:22 10° SSE 19:00:10 17° ESE 19:03:11 10° ENE
Cosmos 1606 Rocket 4.0 18:56:03 10° SSE 19:00:13 41° E 19:04:26 10° NNE
ADEOS Rocket 3.6 18:53:50 10° NNE 19:00:20 67° WNW 19:06:09 10° SSW
STARLINK-1216 3.7 18:56:52 10° W 19:01:02 80° N 19:05:12 10° E
STARLINK-1205 2.9 18:57:55 10° WNW 19:01:03 87° S 19:04:11 10° ESE
STARLINK-1204 2.9 18:58:21 10° WNW 19:01:29 87° SSW 19:04:37 10° ESE
Meteor 1-16 Rocket 4.3 18:59:28 10° S 19:04:45 56° E 19:10:15 10° NNE
Cosmos 1818 3.8 18:59:41 10° SSW 19:04:56 51° ESE 19:10:13 10° NE
STARLINK-1237 3.7 19:01:51 10° W 19:06:00 81° N 19:10:09 10° E
Abrixas rocket 2.8 19:06:00 10° WSW 19:08:46 37° S 19:11:30 10° ESE
Cosmos 1943 Rocket 4.0 19:05:10 10° NW 19:10:01 32° WSW 19:14:51 10° SSW
STARLINK-1202 3.7 19:06:50 10° W 19:10:59 82° N 19:15:09 10° E
NOSS 3-4 (A) 3.9 19:05:06 10° NW 19:11:58 85° SW 19:19:35 10° SE
NOSS 3-4 (C) 3.9 19:05:12 10° NW 19:12:05 85° SW 19:19:42 10° SE
SL-4 R/B 2.3 19:16:26 10° SW 19:19:32 33° SSE 19:22:39 10° E
Cosmos 2369 Rocket 3.8 19:14:32 10° NW 19:19:40 35° WSW 19:24:43 10° S
Cosmos 1300 4.2 19:17:27 10° SE 19:20:07 18° E 19:22:47 10° NE
STARLINK-1246 3.7 19:16:49 10° W 19:20:58 84° N 19:24:53 12° E
MOS 1 Rocket 4.3 19:16:37 10° NNE 19:21:31 35° E 19:26:28 10° SSE
STARLINK-1203 3.7 19:17:26 10° W 19:21:40 86° N 19:25:34 12° E
STARLINK-1201 3.0 19:19:28 10° WNW 19:22:44 76° SSW 19:25:27 14° ESE
NOSS 3-3 (A) 4.1 19:17:25 10° SW 19:23:24 89° SE 19:30:18 10° NE
NOSS 3-3 (C) 4.0 19:17:30 10° SW 19:23:30 89° SE 19:30:23 10° NE
CZ-2C R/B 4.1 19:19:32 10° NNE 19:24:05 45° E 19:28:32 10° S
Cosmos 1703 3.3 19:20:22 10° NNW 19:24:21 88° W 19:28:20 10° S
Cosmos 1340 Rocket 3.4 19:20:51 10° SSE 19:24:33 35° E 19:28:15 10° NNE
Cosmos 1328 3.8 19:20:58 10° N 19:25:01 90° W 19:29:01 10° S
STARLINK-67 3.4 19:22:51 10° W 19:25:16 36° SSW 19:27:10 14° SE
STARLINK-1224 3.6 19:21:47 10° W 19:25:57 85° N 19:29:39 13° E
H-2A R/B 2.6 19:22:24 10° S 19:27:32 61° WSW 19:32:33 10° NNW
CZ-2C R/B 3.4 19:25:28 10° S 19:30:16 61° WSW 19:35:00 10° NNW
Cosmos 1437 4.4 19:27:36 10° NNW 19:30:22 33° W 19:33:07 10° SSW
STARLINK-1225 3.6 19:26:47 10° W 19:30:57 87° N 19:34:27 14° E
STARLINK-1230 3.6 19:31:46 10° W 19:35:55 89° N 19:39:14 16° ESE
Cosmos 2251 Rocket 4.4 19:32:28 10° SW 19:37:45 55° WNW 19:43:04 10° NNE
Cosmos 1908 3.1 19:34:19 10° S 19:38:10 76° E 19:42:05 10° NNE
SL-08 RB Rocket 4.0 19:33:42 10° S 19:38:15 73° WSW 19:42:54 10° NNW
STARLINK-1243 3.6 19:36:44 10° WNW 19:40:55 89° SSE 19:44:01 17° ESE
USA 234 4.2 19:36:30 10° ENE 19:41:31 23° SE 19:46:31 10° S
Resurs 1-3 3.6 19:37:53 10° SSE 19:42:16 81° ENE 19:46:41 10° NNW
SeaSat 1 3.4 19:38:13 10° NNE 19:43:01 52° NW 19:47:47 10° SW
Iridium 4 Rocket 4.3 19:39:56 10° NNE 19:43:16 22° ENE 19:44:57 18° ESE
ATLAS 2AS CENTAUR R/B 3.3 19:36:42 10° NW 19:44:12 59° SW 19:51:04 10° SSE
STARLINK-1228 3.5 19:42:46 10° W 19:45:34 41° SSW 19:47:06 22° SSE
STARLINK-1236 3.6 19:41:43 10° WNW 19:45:52 87° SSW 19:48:47 19° ESE
Cosmos 1943 3.5 19:42:39 10° SW 19:48:18 72° WNW 19:54:02 10° NNE
CZ-4C R/B 3.7 19:43:51 10° NW 19:49:50 38° NNE 19:56:49 10° E
Cosmos 1953 4.2 19:46:13 10° SW 19:49:52 34° WNW 19:53:33 10° N
Cosmos 1140 Rocket 3.5 19:47:58 10° S 19:53:00 54° ESE 19:58:03 10° NNE
Cosmos 1726 3.7 19:49:52 10° SW 19:53:23 38° WNW 19:56:54 10° N
Cosmos 2341 Rocket 4.0 19:47:11 10° N 19:53:35 71° ENE 19:59:56 10° SSE
STARLINK-1269 3.6 19:51:40 10° WNW 19:55:49 83° SSW 19:58:20 23° ESE
Cosmos 1190 Rocket 4.0 19:54:10 10° SSW 19:59:26 69° ESE 20:04:42 10° NNE
DMSP B5D2-2 4.0 19:54:13 10° NNE 19:59:27 69° ESE 20:04:39 10° S
CZ-2C R/B 2.6 19:54:57 10° NNE 20:00:05 61° ESE 20:05:14 10° S
Cosmos 2058 Rocket 3.0 19:55:36 10° S 20:00:07 82° E 20:04:39 10° NNE
Spot 2 Rocket 3.8 19:56:53 19° SE 20:00:22 52° ENE 20:05:20 10° N
COSMOS 2455 3.0 19:54:23 10° NW 20:00:26 77° SW 20:05:11 17° SSE
Cosmos 1697 Rocket 3.9 19:55:34 10° NNW 20:00:32 30° NE 20:04:03 16° E
STARLINK-1200 3.6 19:56:39 10° WNW 20:00:48 80° SSW 20:03:07 25° ESE
Landsat 7 4.5 19:58:57 22° ESE 20:01:32 39° ENE 20:05:58 10° N
Cosmos 1408 4.3 19:59:08 10° NNE 20:01:45 18° ENE 20:02:18 18° ENE
Cosmos 614 Rocket 4.1 20:00:10 10° SSW 20:05:24 82° WNW 20:10:39 10° NNE
STARLINK-1192 3.6 20:01:38 10° WNW 20:05:47 78° SSW 20:07:55 28° ESE
Cosmos 2218 Rocket 4.1 20:01:47 10° N 20:07:55 58° ENE 20:12:17 20° SSE
Cosmos 1726 Rocket 4.2 20:03:46 10° SSW 20:08:07 58° WNW 20:12:32 10° N
IGS 5A 4.1 20:06:52 26° ESE 20:08:35 39° ENE 20:12:28 10° N
Iridium 2 4.1 20:07:49 28° SE 20:09:13 40° E 20:12:50 10° NNE
STARLINK-1244 3.6 20:06:36 10° WNW 20:10:45 75° SSW 20:12:41 30° ESE
ERBS 2.2 20:07:46 10° WNW 20:11:10 82° NNE 20:12:22 37° ESE
SL-24 R/B 4.2 20:07:07 10° N 20:11:18 67° WNW 20:15:05 10° SSW
Resurs 01 Rocket 1.8 20:08:30 14° S 20:12:16 75° WSW 20:16:43 10° NNW
ATLAS CENTAUR R/B 2.8 20:11:28 10° NNW 20:14:52 26° NNE 20:16:45 18° ENE
BREEZE-M DEB (TANK) 1.7 20:11:40 10° WSW 20:15:05 45° S 20:15:10 45° S
Cosmos 468 Rocket 4.1 20:10:15 10° NNW 20:15:24 58° ENE 20:18:01 28° SE
STARLINK-1138 3.6 20:11:35 10° WNW 20:15:44 72° SSW 20:17:28 33° ESE
SL-16 R/B 4.4 20:14:12 10° NNW 20:17:27 15° NNE 20:20:42 10° ENE
Cosmos 921 Rocket 3.7 20:14:29 10° NNW 20:18:33 48° WSW 20:21:45 15° S
STARLINK-1234 4.1 20:16:35 10° W 20:19:17 28° SSW 20:19:47 26° SSW
STARLINK-1233 3.8 20:16:29 10° W 20:19:24 35° SSW 20:19:56 32° S
STARLINK-1212 3.8 20:16:56 10° W 20:19:50 35° SSW 20:20:21 32° S
STARLINK-1105 3.8 20:17:22 10° W 20:20:18 35° SSW 20:20:48 32° S
STARLINK-1209 4.2 20:17:45 10° W 20:20:23 26° SSW 20:20:51 25° SSW
STARLINK-1143 3.6 20:16:33 10° WNW 20:20:42 69° SSW 20:22:15 36° SE
STARLINK-1206 3.8 20:17:52 10° W 20:20:45 34° SSW 20:21:13 32° S
STARLINK-1247 3.8 20:18:19 10° W 20:21:12 34° SSW 20:21:39 32° S
STARLINK-1227 3.8 20:18:44 10° W 20:21:38 34° SSW 20:22:06 32° S
STARLINK-1218 3.8 20:19:14 10° W 20:22:06 34° SSW 20:22:31 32° S
STARLINK-1226 3.8 20:19:40 10° W 20:22:33 34° SSW 20:22:58 32° S
STARLINK-1254 3.9 20:20:05 10° W 20:22:59 34° SSW 20:23:24 32° S
STARLINK-1215 3.9 20:20:35 10° W 20:23:27 33° SSW 20:23:49 32° SSW
STARLINK-1231 3.9 20:21:02 10° W 20:23:53 33° SSW 20:24:15 32° SSW
SL-8 Rocket 4.0 20:18:00 10° N 20:24:22 85° E 20:29:12 18° SSE
STARLINK-1232 3.9 20:21:57 10° W 20:24:48 32° SSW 20:25:08 31° SSW
STARLINK-1217 3.9 20:22:23 10° W 20:25:14 32° SSW 20:25:33 31° SSW
USA 245 4.4 20:21:27 23° SSE 20:25:18 76° ENE 20:31:46 10° NNW
STARLINK-1208 3.9 20:22:48 10° W 20:25:40 32° SSW 20:26:00 31° SSW
STARLINK-1241 3.7 20:21:34 10° WNW 20:25:42 66° SSW 20:27:04 39° SE
Cosmos 2322 Rocket 4.5 20:22:45 10° NNW 20:25:54 15° NNE 20:29:03 10° NE
STARLINK-1229 3.9 20:23:17 10° W 20:26:07 32° SSW 20:26:25 31° SSW
STARLINK-1271 3.9 20:23:44 10° W 20:26:34 32° SSW 20:26:52 31° SSW
Cosmos 2181 Rocket 3.9 20:20:36 10° S 20:26:47 68° E 20:32:55 10° NNE
Cosmos 864 Rocket 4.4 20:20:40 10° N 20:26:55 71° ENE 20:30:44 24° SSE
STARLINK-1270 4.0 20:24:12 10° W 20:27:02 31° SSW 20:27:17 31° SSW
Cosmos 407 Rocket 3.8 20:22:00 10° SW 20:27:07 67° WNW 20:32:14 10° NNE
STARLINK-1154 4.0 20:24:39 10° W 20:27:29 31° SSW 20:27:43 31° SSW
SL-24 R/B - RUBIN 2 4.3 20:22:12 10° SW 20:27:58 87° SE 20:34:28 10° NE
Cosmos 676 Rocket 3.9 20:22:56 10° SSW 20:28:11 73° ESE 20:33:27 10° NNE
Cosmos 1656 3.9 20:22:37 10° NNW 20:28:16 60° NE 20:30:57 31° ESE
STARLINK-1197 4.0 20:25:34 10° W 20:28:23 31° SSW 20:28:35 30° SSW
STARLINK-1189 4.0 20:26:01 10° W 20:28:50 31° SSW 20:29:01 30° SSW
STARLINK-1198 4.0 20:26:27 10° W 20:29:16 30° SSW 20:29:27 30° SSW
Cosmos 1455 3.8 20:30:11 21° ENE 20:30:11 21° ENE 20:32:19 10° NE
ERS-1 Rocket 3.3 20:27:20 31° ESE 20:29:20 48° ENE 20:34:11 10° N
STARLINK-1188 4.0 20:26:55 10° W 20:29:43 30° SSW 20:29:53 30° SSW
Cosmos 1980 Rocket 3.5 20:24:54 10° NNW 20:29:44 28° NE 20:32:34 19° E
STARLINK-1235 4.3 20:27:38 10° W 20:30:19 26° SSW 20:30:32 25° SSW
STARLINK-1239 3.7 20:26:31 10° WNW 20:30:37 63° SSW 20:31:48 42° SE
STARLINK-1187 4.2 20:28:02 10° W 20:30:48 28° SSW 20:30:59 28° SSW
Cosmos 1892 2.8 20:27:15 10° N 20:31:07 58° ENE 20:32:00 45° SE
Cosmos 1812 Rocket 3.6 20:29:45 35° SSE 20:31:15 53° E 20:35:28 10° NNE
STARLINK-1199 4.1 20:28:51 10° W 20:31:40 30° SSW 20:31:48 30° SSW
STARLINK-1191 4.1 20:29:20 10° W 20:32:08 30° SSW 20:32:15 29° SSW
STARLINK-1210 4.1 20:29:46 10° W 20:32:34 29° SSW 20:32:40 29° SSW
STARLINK-1221 4.1 20:30:14 10° W 20:33:02 29° SSW 20:33:07 29° SSW
STARLINK-1219 4.1 20:30:40 10° W 20:33:28 29° SSW 20:33:32 29° SSW
MINOTAUR IV R/B 4.4 20:29:26 10° SSW 20:33:54 75° ESE 20:38:25 10° NNE
STARLINK-1222 4.2 20:31:08 10° W 20:33:55 29° SSW 20:33:58 29° SSW
STARLINK-1211 4.2 20:31:35 10° W 20:34:22 29° SSW 20:34:24 29° SSW
STARLINK-1214 4.2 20:32:02 10° W 20:34:48 28° SSW 20:34:50 28° SSW
STARLINK-60 2.9 20:31:46 10° WSW 20:34:55 64° S 20:34:55 64° S
SPOT 5 3.2 20:34:13 35° E 20:35:14 41° ENE 20:39:19 10° N
STARLINK-1245 4.2 20:32:32 10° W 20:35:16 28° SSW 20:35:16 28° SSW
STARLINK-1240 3.7 20:31:31 10° WNW 20:35:37 60° SSW 20:36:36 45° SSE
STARLINK-1238 4.2 20:32:57 10° W 20:35:43 28° SSW 20:35:43 28° SSW
Cosmos 220 Rocket 4.1 20:32:11 10° NNW 20:36:30 75° WSW 20:38:14 36° S
STARLINK-1205 4.3 20:33:54 10° W 20:36:34 28° SW 20:36:34 28° SW
STARLINK-1204 4.3 20:34:21 10° W 20:36:59 27° SW 20:36:59 27° SW
Cosmos 2366 rocket 3.9 20:31:04 10° N 20:37:16 85° E 20:41:05 25° SSE
STARLINK-1216 3.8 20:36:30 10° WNW 20:40:36 58° SSW 20:41:24 47° SSE
Cosmos 1825 3.1 20:37:40 10° N 20:41:04 32° ENE 20:41:04 32° ENE
Terra 2.5 20:42:27 34° E 20:43:34 40° ENE 20:48:01 10° N
Cosmos 1959 Rocket 4.5 20:37:20 10° N 20:43:43 86° W 20:47:42 24° S
Abrixas rocket 4.2 20:41:43 10° WSW 20:43:05 17° SW 20:43:05 17° SW
ATLAS 5 CENTAUR R/B 1.6 20:39:45 10° SW 20:44:02 83° NW 20:48:58 10° NE
STARLINK-1237 3.8 20:41:28 10° WNW 20:45:32 55° SSW 20:46:09 49° S
Cosmos 2151 3.2 20:45:20 10° N 20:49:27 50° ENE 20:49:51 48° E
Cosmos 2058 3.0 20:45:22 10° NNW 20:49:29 74° W 20:50:48 42° S
STARLINK-1202 3.8 20:46:28 10° WNW 20:50:31 52° SSW 20:50:57 49° S
Cosmos 1954 Rocket 4.0 20:46:02 10° SSW 20:51:16 80° WNW 20:56:31 10° NNE
RESURS DK-1 2.5 20:48:33 10° NNW 20:52:42 61° NE 20:53:17 54° E
SPOT 1/Viking Rocket 3.5 20:52:37 37° SSE 20:54:47 88° WSW 21:00:03 10° NNW
Cosmos 1300 3.7 20:52:16 13° SW 20:55:27 45° WNW 20:59:10 10° N
Cosmos 1741 Rocket 4.2 20:54:59 43° SSE 20:56:08 51° ESE 21:01:18 10° NNE
Cosmos 2278 4.3 20:51:40 10° NNW 20:57:06 44° NE 20:58:59 33° E
Cosmos 1076 Rocket 3.8 20:53:18 10° NNW 20:57:32 61° W 20:59:02 37° SSW
SL-4 R/B 1.8 20:55:25 10° WSW 20:58:16 58° WSW 20:58:16 58° WSW
Cosmos 2208 Rocket 4.1 20:54:17 10° NNW 20:59:28 64° ENE 21:00:47 47° ESE
STARLINK-1246 4.0 20:56:27 10° WNW 21:00:27 46° SSW 21:00:32 46° SSW
STARLINK-1203 4.2 20:57:19 10° WNW 21:01:19 44° SSW 21:01:25 44° SSW
Cosmos 2082 Rocket 4.0 21:04:00 15° ENE 21:04:00 15° ENE 21:05:39 10° ENE
STARLINK-1224 4.2 21:01:26 10° WNW 21:05:18 44° SW 21:05:18 44° SW
Cosmos 1763 Rocket 3.6 21:03:49 10° NNW 21:09:00 70° WSW 21:10:29 45° S
STARLINK-1225 4.3 21:06:26 10° W 21:10:06 41° SW 21:10:06 41° SW
Cosmos 1833 Rocket 3.7 21:13:44 30° E 21:13:44 30° E 21:17:28 10° NE
Cosmos 489 Rocket 4.4 21:06:20 10° NNW 21:12:35 88° WSW 21:14:41 45° SSE
STARLINK-1230 4.5 21:11:26 10° W 21:14:53 38° SW 21:14:53 38° SW
BREEZE M DEB (TANK) 3.8 21:13:17 10° SW 21:17:31 58° SSE 21:31:36 10° ENE
Cosmos 1814 Rocket 4.0 21:13:02 10° NNW 21:18:26 77° ENE 21:19:27 58° SE
Cosmos 540 Rocket 3.4 21:13:16 10° NNW 21:18:29 78° ENE 21:19:20 61° SE
Cosmos 1821 Rocket 4.0 21:12:13 10° N 21:18:38 75° ENE 21:20:35 47° SSE
Cosmos-2242 3.0 21:21:21 70° ENE 21:21:21 70° ENE 21:25:28 10° NNE
COSMOS 2406 3.2 21:21:00 55° SE 21:21:41 60° ESE 21:27:19 10° NE
Cosmos 1934 Rocket 4.2 21:17:13 10° N 21:23:22 54° ENE 21:24:38 46° ESE
Iridium 4 Rocket 4.0 21:19:30 10° NNW 21:23:30 42° W 21:24:45 32° SW
Meteor 2-10 Rocket 3.4 21:23:20 61° SSE 21:24:07 72° E 21:29:34 10° NNE
USA 234 3.1 21:18:54 10° ENE 21:25:25 65° SE 21:31:54 10° SW
USA 32 4.2 21:24:43 10° N 21:29:56 70° W 21:31:15 49° SSW
Cosmos 1408 3.6 21:33:30 10° NNW 21:36:38 43° WNW 21:36:38 43° WNW
Cosmos 1605 Rocket 4.4 21:31:50 10° N 21:37:45 46° ENE 21:38:36 44° E
Cosmos 2369 3.6 21:33:36 10° NNW 21:39:17 80° WSW 21:40:06 65° S
CZ-4C R/B 2.9 21:32:26 10° NW 21:39:20 79° NE 21:41:59 45° ESE
Cosmos 2084 4.4 21:36:38 10° NW 21:40:52 40° NNE 21:41:15 39° NE
Cosmos 1850 Rocket 4.1 21:39:34 41° SW 21:41:23 74° WNW 21:46:36 10° NNE
CARTOSAT-1 4.3 21:43:22 44° WSW 21:43:38 45° W 21:47:49 10° NNW
ASTEX 1 3.3 21:44:36 72° E 21:44:36 72° E 21:49:32 10° N
Cosmos 1697 Rocket 2.6 21:39:21 10° NNW 21:45:02 73° WSW 21:45:47 64° SSW
Cosmos 841 Rocket 3.7 21:41:07 10° NNW 21:46:20 61° WSW 21:46:53 58° SW
Cosmos 1356 Rocket 3.8 21:46:43 61° WNW 21:46:43 61° WNW 21:50:56 10° N
Mayak 0.0 21:45:19 10° NNE 21:47:46 32° NE 21:47:46 32° NE
Resurs 01 Rocket 4.5 21:48:47 10° W 21:49:34 10° W 21:50:21 10° WNW
Okean 3 Rocket 4.2 21:45:40 10° NNW 21:49:56 48° W 21:50:04 48° W
ATLAS CENTAUR R/B 2.3 21:50:16 10° NW 21:52:56 40° WNW 21:52:56 40° WNW
ALOS 2 4.2 21:55:17 25° NE 21:55:17 25° NE 21:58:24 10° N
Cosmos 1766 Rocket 4.1 21:50:40 10° NNW 21:54:58 52° W 21:54:58 52° W
SL-16 R/B 3.0 21:57:55 10° NNW 22:03:15 39° NE 22:04:14 36° ENE
Cosmos 1455 3.6 22:05:04 35° WNW 22:05:04 35° WNW 22:08:19 10° N
Cosmos 1500 Rocket 4.2 22:02:00 10° N 22:05:20 49° NNE 22:05:20 49° NNE
Cosmos 2360 Rocket 3.9 22:01:48 10° NNW 22:06:25 25° NE 22:08:30 20° ENE
ERS-1 Rocket 4.3 22:07:19 27° WSW 22:08:20 29° W 22:12:44 10° NNW
Meteor 2-3 Rocket 3.7 22:04:50 10° NNW 22:10:36 72° W 22:11:01 69° SW
Cosmos 2322 Rocket 3.1 22:06:22 10° NNW 22:11:39 38° NE 22:12:34 36° ENE
SPOT 5 4.2 22:13:27 26° W 22:13:30 26° W 22:17:11 10° NW
Cosmos 1980 Rocket 2.1 22:08:41 10° NNW 22:14:19 76° WSW 22:14:19 76° WSW
Cosmos 1825 4.2 22:13:23 10° NNW 22:15:53 24° WNW 22:15:53 24° WNW
Cosmos 2333 Rocket 4.5 22:17:16 10° NNW 22:21:09 18° NNE 22:25:01 10° ENE
Terra 3.0 22:21:20 33° W 22:21:24 33° W 22:25:42 10° NNW
ATLAS 5 CENTAUR R/B 3.7 22:25:22 10° W 22:29:22 29° NNW 22:33:56 10° NE
Helios 1A 4.5 22:40:49 33° NNE 22:40:49 33° NNE 22:43:30 10° N
Thor Agena Rocket 3.7 22:35:08 10° NNE 22:39:38 68° N 22:39:38 68° N
Cosmos 2278 4.5 22:35:58 10° NW 22:40:53 41° W 22:40:53 41° W
Cosmos 2082 Rocket 2.3 22:45:47 73° NNE 22:45:47 73° NNE 22:50:55 10° NNE
Cosmos 1459 Rocket 4.2 22:43:13 10° N 22:49:33 59° ENE 22:49:42 59° E
Cosmos 2344 4.4 22:45:48 10° NW 22:55:06 68° SW 22:58:33 50° S
Cosmos 1833 Rocket 3.2 22:55:22 50° W 22:56:12 54° NW 23:01:45 10° NNE
Cosmos 2221 3.8 22:58:41 39° NNW 22:58:41 39° NNW 23:01:42 10° N
Cosmos 1727 Rocket 3.9 22:58:39 80° E 22:58:39 80° E 23:04:53 10° NNE
Cosmos 1153 Rocket 4.4 22:53:36 10° NNW 22:59:55 77° W 23:00:00 77° WSW
Gblst 52 Del rocket 4.5 22:52:30 10° W 23:00:04 85° S 23:00:23 81° SE
Cosmos 2219 Rocket 4.0 23:00:16 10° NNW 23:04:55 25° NE 23:07:20 19° ENE
Cosmos 2016 Rocket 4.3 23:00:23 10° N 23:06:39 56° ENE 23:06:48 56° E
Cosmos 1802 Rocket 4.1 23:01:51 10° N 23:07:59 66° ENE 23:07:59 66° ENE
USA 234 3.4 23:02:02 10° ENE 23:08:33 70° NNW 23:15:02 10° W
NOSS 2-1 (E) 4.3 23:06:14 10° NW 23:10:42 71° N 23:10:42 71° N
Cosmos 1241 Rocket 4.4 23:06:42 10° NW 23:13:00 80° NE 23:13:00 80° NE
Cosmos 2100 Rocket 3.9 23:06:51 10° N 23:12:57 86° NNE 23:12:57 86° NNE
Nimbus 7 Rocket 4.4 23:14:32 10° NNE 23:20:11 80° NNW 23:20:11 80° NNW
Cosmos 2173 Rocket 3.9 23:16:00 10° N 23:21:49 81° NNW 23:21:49 81° NNW
Mayak 0.9 23:21:31 10° NNW 23:24:21 21° NW 23:24:21 21° NW
COSMOS 2428 4.2 23:21:01 10° NNW 23:26:04 31° NE 23:28:04 25° ENE
CZ-4C R/B 3.7 23:21:14 10° NW 23:27:10 36° WSW 23:27:10 36° WSW
ALOS 2 4.2 23:32:40 30° NW 23:32:40 30° NW 23:35:10 10° NNW
Cosmos 968 Rocket 4.1 23:46:26 52° NNW 23:46:26 52° NNW 23:51:04 10° NNE
MOS 1-B Rocket 4.0 23:40:15 10° NNE 23:46:25 84° ESE 23:46:30 83° SE
SL-16 R/B 3.1 23:42:03 10° NW 23:46:05 40° WNW 23:46:05 40° WNW
Cosmos 2360 Rocket 2.5 23:45:32 10° NNW 23:50:15 64° NNW 23:50:15 64° NNW
Cosmos 1000 Rocket 4.5 23:52:37 77° WNW 23:52:37 77° WNW 23:58:53 10° N
